Tracking 30922 objects as of 2-Jul-2025
HD Live streaming from Space Station
objects crossing your sky now

FENGYUN 1C DEB

Track FENGYUN 1C DEB now!
10-day predictions


NORAD ID: 30553
Int'l Code: 1999-025AKT
Perigee: 667.0 km
Apogee: 695.3 km
Inclination: 99.1 °
Period: 98.2 minutes
Semi major axis: 7052 km
RCS: 0.027 m2 (small)
Launch date: May 10, 1999
Source: People's Republic of China (PRC)
Launch site: Taiyaun Space Center, China (TSC)

Note: This is SATELLITE DEBRIS
Your satellite tracking list
Your tracking list is empty




NASA's NSSDC Master Catalog

Two Line Element Set (TLE):
1 30553U 99025AKT 25182.64479398  .00008702  00000-0  15943-2 0  9990
2 30553  99.1333 258.5757 0020079 286.1835  73.7155 14.65949732960650
Source of the keplerian elements: AFSPC